Location: Unspecified
(0.0000°N, 0.0000°E)
Time: 08:22:06
(UTC+02:00)

ARIANE 5 R/B - Visible Passes

Search period start: 27 August 2016 00:00
Search period end: 06 September 2016 00:00
Orbit: 646 x 38457 km, 7.2° (Epoch: 26 August)

Date Brightness Start Highest point End Pass type
(mag) Time Alt. Az. Time Alt. Az. Time Alt. Az.
29 Aug 6.3 07:25:32 10° W 08:10:52 89° NNW 18:27:17 10° E visible
30 Aug 6.6 06:30:40 27° W 06:51:16 87° S 17:29:30 10° E visible
31 Aug 6.1 05:35:57 52° WSW 05:44:23 83° S 16:31:12 10° E visible
01 Sep 6.0 04:41:15 77° S 04:41:59 77° SSE 15:32:07 10° E visible
02 Sep 6.5 03:46:32 55° ESE 03:46:32 55° ESE 14:31:53 10° E visible
03 Sep 7.1 02:51:50 30° E 02:51:50 30° E 13:29:43 10° E visible
04 Sep 7.7 01:57:07 12° E 01:57:07 12° E 01:59:05 10° E visible
04 Sep 9.6 06:19:09 10° E 10:47:02 39° E 12:24:05 10° E visible
05 Sep 10.3 07:04:22 10° E 09:49:30 25° E 11:10:40 10° E visible
